Time,TemperatureF,DewpointF,PressureIn,WindDirection,WindDirectionDegrees,WindSpeedMPH,WindSpeedGustMPH,Humidity,HourlyPrecipIn,Conditions,Clouds,dailyrainin,SoftwareType,DateUTC
2013-02-11 00:01:00,19.0,12.0,30.04,SW,224,1.0,6.0,75,0.00,,,0.01,,2013-02-11 07:01:00,
2013-02-11 00:11:00,19.0,12.0,30.04,SSW,200,2.0,8.0,75,0.00,,,0.01,,2013-02-11 07:11:00,
2013-02-11 00:21:00,19.0,12.0,30.04,SSW,200,2.0,8.0,75,0.00,,,0.01,,2013-02-11 07:21:00,
2013-02-11 00:32:00,19.0,12.0,30.05,SW,224,2.0,9.0,75,0.00,,,0.01,,2013-02-11 07:32:00,
2013-02-11 00:41:00,19.0,12.0,30.05,SW,216,2.0,9.0,75,0.00,,,0.01,,2013-02-11 07:41:00,
2013-02-11 00:52:00,19.0,12.0,30.05,SW,216,2.0,9.0,75,0.00,,,0.01,,2013-02-11 07:52:00,
2013-02-11 01:01:00,20.0,13.0,30.05,South,169,6.0,12.0,74,0.00,,,0.01,,2013-02-11 08:01:00,
2013-02-11 01:11:00,20.0,13.0,30.06,South,183,5.0,12.0,74,0.00,,,0.01,,2013-02-11 08:11:00,
2013-02-11 01:21:00,20.0,13.0,30.06,South,183,5.0,12.0,74,0.00,,,0.01,,2013-02-11 08:21:00,
2013-02-11 01:31:00,20.0,13.0,30.06,SSW,197,3.0,13.0,75,0.00,,,0.01,,2013-02-11 08:31:00,
2013-02-11 01:42:00,20.0,13.0,30.06,South,191,5.0,12.0,75,0.00,,,0.01,,2013-02-11 08:42:00,
2013-02-11 01:52:00,20.0,13.0,30.06,South,191,5.0,12.0,75,0.00,,,0.01,,2013-02-11 08:52:00,
2013-02-11 02:01:00,20.0,14.0,30.03,South,187,4.0,11.0,77,0.00,,,0.01,,2013-02-11 09:01:00,
2013-02-11 02:12:00,20.0,15.0,30.04,SSW,197,5.0,11.0,79,0.00,,,0.01,,2013-02-11 09:12:00,
2013-02-11 02:21:00,20.0,15.0,30.04,SSW,197,5.0,11.0,79,0.00,,,0.01,,2013-02-11 09:21:00,
2013-02-11 02:31:00,20.0,16.0,30.04,South,177,3.0,9.0,83,0.00,,,0.01,,2013-02-11 09:31:00,
2013-02-11 02:41:00,20.0,16.0,30.04,South,177,3.0,9.0,83,0.00,,,0.01,,2013-02-11 09:41:00,
2013-02-11 02:52:00,19.0,15.0,30.04,SSW,194,3.0,9.0,85,0.00,,,0.01,,2013-02-11 09:52:00,
2013-02-11 03:01:00,19.0,15.0,30.03,South,183,4.0,11.0,85,0.00,,,0.01,,2013-02-11 10:01:00,
2013-02-11 03:11:00,19.0,15.0,30.03,South,183,4.0,11.0,85,0.00,,,0.01,,2013-02-11 10:11:00,
2013-02-11 03:21:00,19.0,16.0,30.03,SSE,166,2.0,9.0,86,0.00,,,0.01,,2013-02-11 10:21:00,
2013-02-11 03:31:00,19.0,16.0,30.03,South,191,2.0,9.0,87,0.00,,,0.01,,2013-02-11 10:31:00,
2013-02-11 03:41:00,19.0,16.0,30.02,South,170,3.0,9.0,86,0.00,,,0.01,,2013-02-11 10:41:00,
2013-02-11 03:52:00,19.0,16.0,30.02,South,170,3.0,9.0,86,0.00,,,0.01,,2013-02-11 10:52:00,
2013-02-11 04:01:00,19.0,16.0,30.02,South,185,4.0,8.0,86,0.00,,,0.01,,2013-02-11 11:01:00,
2013-02-11 04:11:00,19.0,16.0,30.02,South,185,4.0,8.0,86,0.00,,,0.01,,2013-02-11 11:11:00,
2013-02-11 04:22:00,19.0,15.0,30.02,SSE,165,2.0,8.0,85,0.00,,,0.01,,2013-02-11 11:22:00,
2013-02-11 04:32:00,18.0,14.0,30.02,South,189,4.0,9.0,85,0.00,,,0.01,,2013-02-11 11:32:00,
2013-02-11 04:42:00,18.0,14.0,30.02,South,190,3.0,8.0,85,0.00,,,0.01,,2013-02-11 11:42:00,
2013-02-11 04:52:00,18.0,14.0,30.02,South,190,3.0,8.0,85,0.00,,,0.01,,2013-02-11 11:52:00,
2013-02-11 05:03:00,18.0,14.0,30.02,SSW,212,3.0,7.0,83,0.00,,,0.01,,2013-02-11 12:03:00,
2013-02-11 05:12:00,18.0,14.0,30.02,SSW,212,3.0,7.0,83,0.00,,,0.01,,2013-02-11 12:12:00,
2013-02-11 05:22:00,17.0,12.0,30.03,SSW,196,1.0,8.0,82,0.00,,,0.01,,2013-02-11 12:22:00,
2013-02-11 05:32:00,17.0,12.0,30.03,SW,221,2.0,6.0,82,0.00,,,0.01,,2013-02-11 12:32:00,
2013-02-11 05:42:00,17.0,12.0,30.03,North,0,0.0,3.0,81,0.00,,,0.01,,2013-02-11 12:42:00,
2013-02-11 05:52:00,17.0,12.0,30.03,North,0,0.0,3.0,81,0.00,,,0.01,,2013-02-11 12:52:00,
2013-02-11 06:01:00,16.0,11.0,30.04,North,0,0.0,3.0,82,0.00,,,0.01,,2013-02-11 13:01:00,
2013-02-11 06:11:00,16.0,12.0,30.02,SW,221,1.0,4.0,83,0.00,,,0.01,,2013-02-11 13:11:00,
2013-02-11 06:22:00,16.0,12.0,30.02,SW,221,1.0,4.0,83,0.00,,,0.01,,2013-02-11 13:22:00,
2013-02-11 06:32:00,15.0,11.0,30.02,North,0,0.0,2.0,83,0.00,,,0.01,,2013-02-11 13:32:00,
2013-02-11 06:42:00,15.0,11.0,30.02,North,0,0.0,2.0,83,0.00,,,0.01,,2013-02-11 13:42:00,
2013-02-11 06:52:00,15.0,11.0,30.02,North,0,0.0,1.0,84,0.00,,,0.01,,2013-02-11 13:52:00,
2013-02-11 07:01:00,15.0,11.0,30.03,North,0,0.0,1.0,85,0.00,,,0.01,,2013-02-11 14:01:00,
2013-02-11 07:11:00,15.0,11.0,30.03,North,0,0.0,1.0,85,0.00,,,0.01,,2013-02-11 14:11:00,
2013-02-11 07:21:00,14.0,11.0,30.03,North,0,0.0,0.0,86,0.00,,,0.01,,2013-02-11 14:21:00,
2013-02-11 07:32:00,14.0,11.0,30.03,North,0,0.0,1.0,86,0.00,,,0.01,,2013-02-11 14:32:00,
2013-02-11 07:42:00,14.0,11.0,30.04,North,0,0.0,3.0,88,0.00,,,0.01,,2013-02-11 14:42:00,
2013-02-11 07:53:00,14.0,11.0,30.04,North,0,0.0,3.0,88,0.00,,,0.01,,2013-02-11 14:53:00,
2013-02-11 08:01:00,16.0,13.0,30.04,WNW,301,4.0,6.0,88,0.00,,,0.01,,2013-02-11 15:01:00,
2013-02-11 08:11:00,16.0,13.0,30.04,WNW,301,4.0,6.0,88,0.00,,,0.01,,2013-02-11 15:11:00,
2013-02-11 08:22:00,18.0,15.0,30.05,North,0,0.0,5.0,86,0.00,,,0.01,,2013-02-11 15:22:00,
2013-02-11 08:32:00,19.0,15.0,30.05,NW,315,2.0,6.0,83,0.00,,,0.01,,2013-02-11 15:32:00,
2013-02-11 08:42:00,19.0,14.0,30.06,North,0,0.0,4.0,82,0.00,,,0.01,,2013-02-11 15:42:00,
2013-02-11 08:52:00,19.0,14.0,30.06,North,0,0.0,4.0,82,0.00,,,0.01,,2013-02-11 15:52:00,
2013-02-11 09:02:00,20.0,15.0,30.05,NW,317,2.0,5.0,81,0.00,,,0.01,,2013-02-11 16:02:00,
2013-02-11 09:11:00,21.0,16.0,30.06,North,0,0.0,4.0,79,0.00,,,0.01,,2013-02-11 16:11:00,
2013-02-11 09:22:00,21.0,16.0,30.06,North,0,0.0,4.0,79,0.00,,,0.01,,2013-02-11 16:22:00,
2013-02-11 09:32:00,22.0,16.0,30.05,NNW,332,3.0,7.0,79,0.00,,,0.01,,2013-02-11 16:32:00,
2013-02-11 09:42:00,22.0,16.0,30.05,NNW,327,1.0,6.0,76,0.00,,,0.01,,2013-02-11 16:42:00,
2013-02-11 09:52:00,22.0,16.0,30.05,NNW,327,1.0,6.0,76,0.00,,,0.01,,2013-02-11 16:52:00,
2013-02-11 10:01:00,22.0,15.0,30.04,NNW,328,2.0,6.0,73,0.00,,,0.01,,2013-02-11 17:01:00,
2013-02-11 10:11:00,22.0,15.0,30.04,NNW,328,2.0,6.0,73,0.00,,,0.01,,2013-02-11 17:11:00,
2013-02-11 10:21:00,24.0,17.0,30.04,North,0,0.0,4.0,74,0.00,,,0.01,,2013-02-11 17:21:00,
2013-02-11 10:32:00,26.0,18.0,30.04,North,349,1.0,5.0,70,0.00,,,0.01,,2013-02-11 17:32:00,
2013-02-11 10:42:00,26.0,18.0,30.04,North,349,1.0,5.0,70,0.00,,,0.01,,2013-02-11 17:42:00,
2013-02-11 10:53:00,27.0,17.0,30.04,NNE,12,1.0,6.0,65,0.00,,,0.01,,2013-02-11 17:53:00,
2013-02-11 11:01:00,29.0,17.0,30.03,ENE,70,1.0,5.0,60,0.00,,,0.01,,2013-02-11 18:01:00,
2013-02-11 11:11:00,29.0,17.0,30.03,ENE,70,1.0,5.0,60,0.00,,,0.01,,2013-02-11 18:11:00,
2013-02-11 11:21:00,29.0,17.0,30.03,East,95,1.0,7.0,60,0.00,,,0.01,,2013-02-11 18:21:00,
2013-02-11 11:32:00,29.0,16.0,30.01,North,0,0.0,7.0,58,0.00,,,0.01,,2013-02-11 18:32:00,
2013-02-11 11:42:00,29.0,16.0,30.00,North,0,0.0,4.0,58,0.00,,,0.01,,2013-02-11 18:42:00,
2013-02-11 11:52:00,29.0,16.0,30.00,North,0,0.0,4.0,58,0.00,,,0.01,,2013-02-11 18:52:00,
2013-02-11 12:02:00,29.0,15.0,29.99,North,0,0.0,6.0,56,0.00,,,0.01,,2013-02-11 19:02:00,
2013-02-11 12:11:00,31.0,16.0,29.98,North,0,0.0,6.0,54,0.00,,,0.00,,2013-02-11 19:11:00,
2013-02-11 12:21:00,31.0,16.0,29.98,North,0,0.0,6.0,54,0.00,,,0.00,,2013-02-11 19:21:00,
2013-02-11 12:32:00,31.0,15.0,29.98,ESE,117,3.0,6.0,51,0.00,,,0.00,,2013-02-11 19:32:00,
2013-02-11 12:41:00,31.0,15.0,29.98,ESE,117,3.0,6.0,51,0.00,,,0.00,,2013-02-11 19:41:00,
2013-02-11 12:51:00,30.0,15.0,29.98,SE,139,5.0,9.0,53,0.00,,,0.00,,2013-02-11 19:51:00,
2013-02-11 13:01:00,29.0,15.0,29.97,SE,138,2.0,8.0,56,0.00,,,0.00,,2013-02-11 20:01:00,
2013-02-11 13:11:00,28.0,14.0,29.97,SE,144,5.0,9.0,56,0.00,,,0.00,,2013-02-11 20:11:00,
2013-02-11 13:21:00,28.0,14.0,29.97,SE,144,5.0,9.0,56,0.00,,,0.00,,2013-02-11 20:21:00,
2013-02-11 13:32:00,29.0,16.0,29.97,SE,141,2.0,7.0,57,0.00,,,0.00,,2013-02-11 20:32:00,
2013-02-11 13:42:00,29.0,16.0,29.96,SE,130,4.0,8.0,57,0.00,,,0.00,,2013-02-11 20:42:00,
2013-02-11 13:52:00,29.0,16.0,29.96,SE,130,4.0,8.0,57,0.00,,,0.00,,2013-02-11 20:52:00,
2013-02-11 14:02:00,29.0,14.0,29.96,North,0,0.0,2.0,54,0.00,,,0.00,,2013-02-11 21:02:00,
2013-02-11 14:11:00,29.0,14.0,29.95,North,0,0.0,7.0,52,0.00,,,0.00,,2013-02-11 21:11:00,
2013-02-11 14:21:00,29.0,14.0,29.95,North,0,0.0,7.0,52,0.00,,,0.00,,2013-02-11 21:21:00,
2013-02-11 14:32:00,29.0,13.0,29.95,North,0,0.0,5.0,51,0.00,,,0.00,,2013-02-11 21:32:00,
2013-02-11 14:42:00,29.0,13.0,29.95,North,0,0.0,4.0,51,0.00,,,0.00,,2013-02-11 21:42:00,
2013-02-11 14:52:00,29.0,13.0,29.95,North,0,0.0,4.0,51,0.00,,,0.00,,2013-02-11 21:52:00,
2013-02-11 15:01:00,30.0,15.0,29.95,SSW,197,2.0,4.0,53,0.00,,,0.00,,2013-02-11 22:01:00,
2013-02-11 15:11:00,29.0,14.0,29.95,North,0,0.0,3.0,52,0.00,,,0.00,,2013-02-11 22:11:00,
2013-02-11 15:21:00,29.0,14.0,29.95,North,0,0.0,3.0,52,0.00,,,0.00,,2013-02-11 22:21:00,
2013-02-11 15:32:00,29.0,14.0,29.95,North,0,0.0,4.0,52,0.00,,,0.00,,2013-02-11 22:32:00,
2013-02-11 15:42:00,29.0,14.0,29.95,North,0,0.0,4.0,52,0.00,,,0.00,,2013-02-11 22:42:00,
2013-02-11 15:52:00,29.0,14.0,29.95,North,0,0.0,2.0,53,0.00,,,0.00,,2013-02-11 22:52:00,
2013-02-11 16:01:00,29.0,14.0,29.95,North,0,0.0,3.0,53,0.00,,,0.00,,2013-02-11 23:01:00,
2013-02-11 16:11:00,29.0,14.0,29.95,North,0,0.0,3.0,53,0.00,,,0.00,,2013-02-11 23:11:00,
2013-02-11 16:21:00,29.0,14.0,29.95,North,0,0.0,2.0,52,0.00,,,0.00,,2013-02-11 23:21:00,
2013-02-11 16:32:00,29.0,13.0,29.95,WNW,299,1.0,5.0,51,0.00,,,0.00,,2013-02-11 23:32:00,
2013-02-11 16:42:00,29.0,13.0,29.95,WNW,299,1.0,5.0,51,0.00,,,0.00,,2013-02-11 23:42:00,
2013-02-11 16:52:00,29.0,14.0,29.96,WNW,300,1.0,3.0,52,0.00,,,0.00,,2013-02-11 23:52:00,
2013-02-11 17:01:00,29.0,14.0,29.96,North,0,0.0,4.0,52,0.00,,,0.00,,2013-02-12 00:01:00,
2013-02-11 17:11:00,29.0,14.0,29.96,North,0,0.0,4.0,52,0.00,,,0.00,,2013-02-12 00:11:00,
2013-02-11 17:22:00,29.0,14.0,29.96,North,0,0.0,4.0,52,0.00,,,0.00,,2013-02-12 00:22:00,
2013-02-11 17:32:00,28.0,13.0,29.97,North,0,0.0,2.0,53,0.00,,,0.00,,2013-02-12 00:32:00,
2013-02-11 17:42:00,28.0,13.0,29.97,North,0,0.0,2.0,53,0.00,,,0.00,,2013-02-12 00:42:00,
2013-02-11 17:52:00,28.0,14.0,29.97,North,0,0.0,2.0,54,0.00,,,0.00,,2013-02-12 00:52:00,
2013-02-11 18:02:00,27.0,13.0,29.98,North,0,0.0,2.0,56,0.00,,,0.00,,2013-02-12 01:02:00,
2013-02-11 18:11:00,27.0,13.0,29.98,North,0,0.0,2.0,56,0.00,,,0.00,,2013-02-12 01:11:00,
2013-02-11 18:21:00,27.0,14.0,29.98,North,0,0.0,1.0,57,0.00,,,0.00,,2013-02-12 01:21:00,
2013-02-11 18:32:00,26.0,13.0,29.99,North,0,0.0,0.0,58,0.00,,,0.00,,2013-02-12 01:32:00,
2013-02-11 18:42:00,25.0,13.0,29.99,North,0,0.0,0.0,60,0.00,,,0.00,,2013-02-12 01:42:00,
2013-02-11 18:52:00,25.0,13.0,29.99,North,0,0.0,0.0,60,0.00,,,0.00,,2013-02-12 01:52:00,
2013-02-11 19:01:00,24.0,13.0,29.99,North,0,0.0,0.0,62,0.00,,,0.00,,2013-02-12 02:01:00,
2013-02-11 19:11:00,23.0,13.0,30.00,North,0,0.0,0.0,65,0.00,,,0.00,,2013-02-12 02:11:00,
2013-02-11 19:21:00,23.0,13.0,30.00,North,0,0.0,0.0,65,0.00,,,0.00,,2013-02-12 02:21:00,
2013-02-11 19:31:00,22.0,12.0,30.00,North,0,0.0,2.0,65,0.00,,,0.00,,2013-02-12 02:31:00,
2013-02-11 19:41:00,22.0,12.0,30.00,North,0,0.0,2.0,65,0.00,,,0.00,,2013-02-12 02:41:00,
2013-02-11 19:52:00,21.0,12.0,30.00,North,0,0.0,1.0,67,0.00,,,0.00,,2013-02-12 02:52:00,
2013-02-11 20:02:00,21.0,12.0,30.00,North,0,0.0,0.0,69,0.00,,,0.00,,2013-02-12 03:02:00,
2013-02-11 20:11:00,20.0,12.0,30.01,North,0,0.0,0.0,71,0.00,,,0.00,,2013-02-12 03:11:00,
2013-02-11 20:21:00,20.0,12.0,30.01,North,0,0.0,0.0,71,0.00,,,0.00,,2013-02-12 03:21:00,
2013-02-11 20:31:00,19.0,11.0,30.01,North,0,0.0,0.0,72,0.00,,,0.00,,2013-02-12 03:31:00,
2013-02-11 20:41:00,19.0,12.0,30.01,North,0,0.0,0.0,73,0.00,,,0.00,,2013-02-12 03:41:00,
2013-02-11 20:52:00,19.0,12.0,30.01,North,0,0.0,0.0,73,0.00,,,0.00,,2013-02-12 03:52:00,
2013-02-11 21:01:00,18.0,11.0,30.01,North,0,0.0,0.0,75,0.00,,,0.00,,2013-02-12 04:01:00,
2013-02-11 21:11:00,18.0,11.0,30.01,North,0,0.0,0.0,75,0.00,,,0.00,,2013-02-12 04:11:00,
2013-02-11 21:21:00,17.0,11.0,30.02,North,0,0.0,0.0,76,0.00,,,0.00,,2013-02-12 04:21:00,
2013-02-11 21:31:00,17.0,11.0,30.02,North,0,0.0,0.0,76,0.00,,,0.00,,2013-02-12 04:31:00,
2013-02-11 21:41:00,17.0,11.0,30.02,North,0,0.0,0.0,76,0.00,,,0.00,,2013-02-12 04:41:00,
2013-02-11 21:52:00,16.0,10.0,30.03,North,0,0.0,0.0,78,0.00,,,0.00,,2013-02-12 04:52:00,
2013-02-11 22:01:00,15.0,9.0,30.01,North,0,0.0,0.0,78,0.00,,,0.00,,2013-02-12 05:01:00,
2013-02-11 22:11:00,15.0,10.0,30.01,North,0,0.0,0.0,79,0.00,,,0.00,,2013-02-12 05:11:00,
2013-02-11 22:21:00,15.0,10.0,30.01,North,0,0.0,0.0,79,0.00,,,0.00,,2013-02-12 05:21:00,
2013-02-11 22:31:00,14.0,9.0,30.01,North,0,0.0,0.0,81,0.00,,,0.00,,2013-02-12 05:31:00,
2013-02-11 22:42:00,14.0,9.0,30.01,North,0,0.0,0.0,81,0.00,,,0.00,,2013-02-12 05:42:00,
2013-02-11 22:52:00,14.0,9.0,30.00,North,0,0.0,0.0,81,0.00,,,0.00,,2013-02-12 05:52:00,
2013-02-11 23:01:00,14.0,9.0,30.00,North,0,0.0,0.0,81,0.00,,,0.00,,2013-02-12 06:01:00,
2013-02-11 23:12:00,13.0,8.0,30.00,North,0,0.0,0.0,81,0.00,,,0.00,,2013-02-12 06:12:00,
2013-02-11 23:21:00,13.0,8.0,30.00,North,0,0.0,0.0,81,0.00,,,0.00,,2013-02-12 06:21:00,
2013-02-11 23:31:00,12.0,8.0,30.00,North,0,0.0,0.0,82,0.00,,,0.00,,2013-02-12 06:31:00,
2013-02-11 23:42:00,12.0,8.0,30.00,North,0,0.0,1.0,84,0.00,,,0.00,,2013-02-12 06:42:00,
2013-02-11 23:52:00,12.0,8.0,30.00,North,0,0.0,1.0,84,0.00,,,0.00,,2013-02-12 06:52:00,